Time,TemperatureF,DewpointF,PressureIn,WindDirection,WindDirectionDegrees,WindSpeedMPH,WindSpeedGustMPH,Humidity,HourlyPrecipIn,Conditions,Clouds,dailyrainin,SolarRadiationWatts/m^2,SoftwareType,DateUTC
2013-06-17 00:00:00,65.3,41.2,29.65,ENE,73,0.0,-999.0,33,-99.99,,,0.00,0.0,cwc,2013-06-17 06:00:00,
2013-06-17 00:05:00,64.8,40.3,29.67,ENE,73,0.0,-999.0,32,-99.99,,,0.00,0.0,cwc,2013-06-17 06:05:00,
2013-06-17 00:10:00,65.2,40.7,29.67,ENE,73,0.0,-999.0,32,-99.99,,,0.00,0.0,cwc,2013-06-17 06:10:00,
2013-06-17 00:15:00,65.0,40.9,29.67,ENE,73,0.0,-999.0,33,-99.99,,,0.00,0.0,cwc,2013-06-17 06:15:00,
2013-06-17 00:20:00,65.0,40.5,29.70,ENE,73,0.0,-999.0,32,-99.99,,,0.00,0.0,cwc,2013-06-17 06:20:00,
2013-06-17 00:25:00,64.8,40.0,29.70,ENE,73,0.0,-999.0,31,-99.99,,,0.00,0.0,cwc,2013-06-17 06:25:00,
2013-06-17 00:30:00,64.7,40.2,29.70,ENE,73,0.0,-999.0,32,-99.99,,,0.00,0.0,cwc,2013-06-17 06:30:00,
2013-06-17 00:35:00,64.7,40.6,29.70,ENE,73,0.0,-999.0,33,-99.99,,,0.00,0.0,cwc,2013-06-17 06:35:00,
2013-06-17 00:40:00,64.5,40.7,29.70,ENE,73,0.0,-999.0,34,-99.99,,,0.00,0.0,cwc,2013-06-17 06:40:00,
2013-06-17 00:45:00,64.2,39.4,29.70,ENE,73,0.0,-999.0,31,-99.99,,,0.00,0.0,cwc,2013-06-17 06:45:00,
2013-06-17 00:50:00,63.9,39.4,29.70,ENE,73,0.0,-999.0,32,-99.99,,,0.00,0.0,cwc,2013-06-17 06:50:00,
2013-06-17 00:55:00,63.2,40.2,29.70,ENE,73,0.0,-999.0,36,-99.99,,,0.00,0.0,cwc,2013-06-17 06:55:00,
2013-06-17 01:00:00,62.9,39.5,29.70,ENE,73,0.0,-999.0,35,-99.99,,,0.00,0.0,cwc,2013-06-17 07:00:00,
2013-06-17 01:05:00,62.4,38.6,29.72,ENE,73,0.0,-999.0,34,-99.99,,,0.00,0.0,cwc,2013-06-17 07:05:00,
2013-06-17 01:10:00,62.0,38.2,29.72,ENE,73,0.0,-999.0,34,-99.99,,,0.00,0.0,cwc,2013-06-17 07:10:00,
2013-06-17 01:15:00,61.5,38.1,29.72,ENE,73,0.0,-999.0,35,-99.99,,,0.00,0.0,cwc,2013-06-17 07:15:00,
2013-06-17 01:20:00,61.5,38.5,29.69,ENE,73,0.0,-999.0,36,-99.99,,,0.00,0.0,cwc,2013-06-17 07:20:00,
2013-06-17 01:25:00,61.3,38.6,29.69,ENE,73,0.0,-999.0,37,-99.99,,,0.00,0.0,cwc,2013-06-17 07:25:00,
2013-06-17 01:30:00,61.3,38.6,29.69,ENE,73,0.0,-999.0,37,-99.99,,,0.00,0.0,cwc,2013-06-17 07:30:00,
2013-06-17 01:35:00,61.2,38.5,29.69,ENE,73,0.0,-999.0,37,-99.99,,,0.00,0.0,cwc,2013-06-17 07:35:00,
2013-06-17 01:40:00,61.0,38.7,29.69,ENE,73,0.0,-999.0,38,-99.99,,,0.00,0.0,cwc,2013-06-17 07:40:00,
2013-06-17 01:45:00,60.5,38.5,29.69,ENE,73,0.0,-999.0,39,-99.99,,,0.00,0.0,cwc,2013-06-17 07:45:00,
2013-06-17 01:55:00,59.2,37.6,29.71,ENE,73,0.0,-999.0,40,-99.99,,,0.00,0.0,cwc,2013-06-17 07:55:00,
2013-06-17 02:00:00,59.2,37.2,29.71,ENE,73,0.0,-999.0,39,-99.99,,,0.00,0.0,cwc,2013-06-17 08:00:00,
2013-06-17 02:05:00,59.0,37.4,29.70,ENE,73,0.0,-999.0,40,-99.99,,,0.00,0.0,cwc,2013-06-17 08:05:00,
2013-06-17 02:10:00,58.4,37.2,29.70,ENE,73,0.0,-999.0,41,-99.99,,,0.00,0.0,cwc,2013-06-17 08:10:00,
2013-06-17 02:15:00,58.4,37.9,29.70,ENE,73,0.0,-999.0,43,-99.99,,,0.00,0.0,cwc,2013-06-17 08:15:00,
2013-06-17 02:20:00,57.8,36.9,29.70,ENE,73,0.0,-999.0,42,-99.99,,,0.00,0.0,cwc,2013-06-17 08:20:00,
2013-06-17 02:25:00,57.6,36.4,29.70,ENE,73,0.0,-999.0,41,-99.99,,,0.00,0.0,cwc,2013-06-17 08:25:00,
2013-06-17 02:30:00,57.6,36.7,29.70,ENE,73,0.0,-999.0,42,-99.99,,,0.00,0.0,cwc,2013-06-17 08:30:00,
2013-06-17 02:35:00,57.3,36.4,29.70,ENE,73,0.0,-999.0,42,-99.99,,,0.00,0.0,cwc,2013-06-17 08:35:00,
2013-06-17 02:40:00,57.0,36.1,29.70,ENE,73,0.0,-999.0,42,-99.99,,,0.00,0.0,cwc,2013-06-17 08:40:00,
2013-06-17 02:45:00,56.6,36.1,29.70,ENE,73,0.0,-999.0,43,-99.99,,,0.00,0.0,cwc,2013-06-17 08:45:00,
2013-06-17 02:50:00,56.6,36.1,29.72,ENE,73,0.0,-999.0,43,-99.99,,,0.00,0.0,cwc,2013-06-17 08:50:00,
2013-06-17 02:55:00,56.3,35.8,29.72,ENE,73,0.0,-999.0,43,-99.99,,,0.00,0.0,cwc,2013-06-17 08:55:00,
2013-06-17 03:00:00,56.0,35.5,29.72,ENE,73,0.0,-999.0,43,-99.99,,,0.00,0.0,cwc,2013-06-17 09:00:00,
2013-06-17 03:05:00,55.7,35.2,29.73,ENE,73,0.0,-999.0,43,-99.99,,,0.00,0.0,cwc,2013-06-17 09:05:00,
2013-06-17 03:10:00,55.4,34.5,29.73,ENE,73,0.0,-999.0,42,-99.99,,,0.00,0.0,cwc,2013-06-17 09:10:00,
2013-06-17 03:15:00,55.3,35.1,29.73,ENE,73,0.0,-999.0,44,-99.99,,,0.00,0.0,cwc,2013-06-17 09:15:00,
2013-06-17 03:20:00,55.0,34.5,29.72,ENE,73,0.0,-999.0,43,-99.99,,,0.00,0.0,cwc,2013-06-17 09:20:00,
2013-06-17 03:25:00,55.3,36.2,29.72,ENE,65,0.0,-999.0,47,-99.99,,,0.00,0.0,cwc,2013-06-17 09:25:00,
2013-06-17 03:30:00,55.9,36.8,29.72,NE,51,6.0,-999.0,47,-99.99,,,0.00,0.0,cwc,2013-06-17 09:30:00,
2013-06-17 03:35:00,56.3,36.9,29.72,NE,51,0.0,-999.0,46,-99.99,,,0.00,0.0,cwc,2013-06-17 09:35:00,
2013-06-17 03:40:00,56.6,37.2,29.72,NE,51,0.0,-999.0,46,-99.99,,,0.00,0.0,cwc,2013-06-17 09:40:00,
2013-06-17 03:45:00,57.0,36.8,29.72,NE,51,0.0,-999.0,44,-99.99,,,0.00,0.0,cwc,2013-06-17 09:45:00,
2013-06-17 03:50:00,57.2,37.0,29.71,NE,51,0.0,-999.0,44,-99.99,,,0.00,0.0,cwc,2013-06-17 09:50:00,
2013-06-17 03:55:00,57.3,36.8,29.71,NE,51,0.0,-999.0,43,-99.99,,,0.00,0.0,cwc,2013-06-17 09:55:00,
2013-06-17 04:00:00,57.0,37.6,29.71,NE,51,0.0,-999.0,46,-99.99,,,0.00,0.0,cwc,2013-06-17 10:00:00,
2013-06-17 04:05:00,56.7,36.5,29.71,NE,51,0.0,-999.0,44,-99.99,,,0.00,0.0,cwc,2013-06-17 10:05:00,
2013-06-17 04:10:00,56.5,36.3,29.71,NE,51,0.0,-999.0,44,-99.99,,,0.00,0.0,cwc,2013-06-17 10:10:00,
2013-06-17 04:15:00,56.2,36.4,29.71,NE,51,0.0,-999.0,45,-99.99,,,0.00,0.0,cwc,2013-06-17 10:15:00,
2013-06-17 04:20:00,55.9,36.1,29.72,NE,51,0.0,-999.0,45,-99.99,,,0.00,0.0,cwc,2013-06-17 10:20:00,
2013-06-17 04:25:00,55.6,35.8,29.72,NE,51,0.0,-999.0,45,-99.99,,,0.00,0.0,cwc,2013-06-17 10:25:00,
2013-06-17 04:30:00,54.7,36.0,29.72,NE,51,0.0,-999.0,48,-99.99,,,0.00,0.0,cwc,2013-06-17 10:30:00,
2013-06-17 04:35:00,54.8,35.7,29.74,NE,51,0.0,-999.0,47,-99.99,,,0.00,0.0,cwc,2013-06-17 10:35:00,
2013-06-17 04:40:00,54.7,35.6,29.74,NE,51,0.0,-999.0,47,-99.99,,,0.00,0.0,cwc,2013-06-17 10:40:00,
2013-06-17 04:45:00,54.5,35.4,29.74,NE,51,0.0,-999.0,47,-99.99,,,0.00,0.0,cwc,2013-06-17 10:45:00,
2013-06-17 04:50:00,53.9,34.8,29.75,NE,51,0.0,-999.0,47,-99.99,,,0.00,0.0,cwc,2013-06-17 10:50:00,
2013-06-17 04:55:00,53.9,34.8,29.75,NE,51,0.0,-999.0,47,-99.99,,,0.00,0.0,cwc,2013-06-17 10:55:00,
2013-06-17 05:00:00,53.8,35.1,29.75,NE,51,0.0,-999.0,48,-99.99,,,0.00,0.0,cwc,2013-06-17 11:00:00,
2013-06-17 05:05:00,52.9,34.9,29.74,NE,51,0.0,-999.0,50,-99.99,,,0.00,0.0,cwc,2013-06-17 11:05:00,
2013-06-17 05:10:00,53.1,35.8,29.74,NE,51,0.0,-999.0,52,-99.99,,,0.00,0.0,cwc,2013-06-17 11:10:00,
2013-06-17 05:15:00,52.9,34.9,29.74,NE,51,0.0,-999.0,50,-99.99,,,0.00,0.0,cwc,2013-06-17 11:15:00,
2013-06-17 05:20:00,52.6,33.9,29.77,NE,51,0.0,-999.0,48,-99.99,,,0.00,0.0,cwc,2013-06-17 11:20:00,
2013-06-17 05:25:00,52.5,34.9,29.77,NE,51,0.0,-999.0,51,-99.99,,,0.00,0.0,cwc,2013-06-17 11:25:00,
2013-06-17 05:30:00,51.9,35.3,29.77,NE,51,0.0,-999.0,54,-99.99,,,0.00,0.0,cwc,2013-06-17 11:30:00,
2013-06-17 05:35:00,51.7,35.1,29.77,NE,51,0.0,-999.0,54,-99.99,,,0.00,0.0,cwc,2013-06-17 11:35:00,
2013-06-17 05:40:00,51.6,34.7,29.77,NE,38,0.0,-999.0,53,-99.99,,,0.00,0.0,cwc,2013-06-17 11:40:00,
2013-06-17 05:45:00,51.3,34.7,29.77,NE,38,0.0,-999.0,54,-99.99,,,0.00,0.0,cwc,2013-06-17 11:45:00,
2013-06-17 05:50:00,51.0,34.4,29.79,NE,38,0.0,-999.0,54,-99.99,,,0.00,0.0,cwc,2013-06-17 11:50:00,
2013-06-17 05:55:00,50.7,34.5,29.79,NE,38,0.0,-999.0,55,-99.99,,,0.00,0.0,cwc,2013-06-17 11:55:00,
2013-06-17 06:00:00,50.4,35.6,29.79,NE,38,0.0,-999.0,59,-99.99,,,0.00,0.0,cwc,2013-06-17 12:00:00,
2013-06-17 06:05:00,49.9,34.4,29.80,NE,38,0.0,-999.0,57,-99.99,,,0.00,0.0,cwc,2013-06-17 12:05:00,
2013-06-17 06:10:00,49.9,34.4,29.80,NE,38,0.0,-999.0,57,-99.99,,,0.00,0.0,cwc,2013-06-17 12:10:00,
2013-06-17 06:15:00,49.8,35.4,29.80,NE,38,0.0,-999.0,60,-99.99,,,0.00,0.0,cwc,2013-06-17 12:15:00,
2013-06-17 06:20:00,49.8,35.4,29.82,NE,48,0.0,-999.0,60,-99.99,,,0.00,0.0,cwc,2013-06-17 12:20:00,
2013-06-17 06:25:00,49.8,35.0,29.82,NE,48,0.0,-999.0,59,-99.99,,,0.00,0.0,cwc,2013-06-17 12:25:00,
2013-06-17 06:30:00,49.9,34.8,29.82,NE,48,0.0,-999.0,58,-99.99,,,0.00,0.0,cwc,2013-06-17 12:30:00,
2013-06-17 06:35:00,50.2,35.1,29.82,NE,48,0.0,-999.0,58,-99.99,,,0.00,0.0,cwc,2013-06-17 12:35:00,
2013-06-17 06:40:00,50.7,36.3,29.82,NE,48,0.0,-999.0,60,-99.99,,,0.00,0.0,cwc,2013-06-17 12:40:00,
2013-06-17 06:45:00,51.3,37.3,29.82,NE,48,0.0,-999.0,61,-99.99,,,0.00,0.0,cwc,2013-06-17 12:45:00,
2013-06-17 06:50:00,51.7,37.3,29.81,NE,48,0.0,-999.0,60,-99.99,,,0.00,0.0,cwc,2013-06-17 12:50:00,
2013-06-17 06:55:00,52.3,37.2,29.81,NE,48,0.0,-999.0,58,-99.99,,,0.00,0.0,cwc,2013-06-17 12:55:00,
2013-06-17 07:00:00,52.9,37.4,29.81,NE,48,0.0,-999.0,57,-99.99,,,0.00,0.0,cwc,2013-06-17 13:00:00,
2013-06-17 07:05:00,53.9,37.3,29.80,NE,48,0.0,-999.0,54,-99.99,,,0.00,0.0,cwc,2013-06-17 13:05:00,
2013-06-17 07:10:00,55.3,37.3,29.80,NE,48,0.0,-999.0,50,-99.99,,,0.00,0.0,cwc,2013-06-17 13:10:00,
2013-06-17 07:15:00,55.9,37.9,29.80,NE,48,0.0,-999.0,50,-99.99,,,0.00,0.0,cwc,2013-06-17 13:15:00,
2013-06-17 07:20:00,56.6,37.9,29.82,NE,48,0.0,-999.0,48,-99.99,,,0.00,0.0,cwc,2013-06-17 13:20:00,
2013-06-17 07:25:00,57.2,38.5,29.82,NE,48,0.0,-999.0,48,-99.99,,,0.00,0.0,cwc,2013-06-17 13:25:00,
2013-06-17 07:30:00,59.0,38.8,29.82,NE,48,0.0,-999.0,44,-99.99,,,0.00,0.0,cwc,2013-06-17 13:30:00,
2013-06-17 07:35:00,60.2,39.7,29.79,NE,48,0.0,-999.0,43,-99.99,,,0.00,0.0,cwc,2013-06-17 13:35:00,
2013-06-17 07:40:00,61.2,40.7,29.79,NE,48,0.0,-999.0,43,-99.99,,,0.00,0.0,cwc,2013-06-17 13:40:00,
2013-06-17 07:45:00,63.1,41.9,29.79,NE,48,0.0,-999.0,41,-99.99,,,0.00,0.0,cwc,2013-06-17 13:45:00,
2013-06-17 07:50:00,64.2,42.6,29.77,NE,48,0.0,-999.0,40,-99.99,,,0.00,0.0,cwc,2013-06-17 13:50:00,
2013-06-17 07:55:00,64.7,41.3,29.77,NE,41,0.0,-999.0,35,-99.99,,,0.00,0.0,cwc,2013-06-17 13:55:00,
2013-06-17 08:00:00,65.8,42.4,29.77,NE,41,0.0,-999.0,35,-99.99,,,0.00,0.0,cwc,2013-06-17 14:00:00,
2013-06-17 08:05:00,65.6,42.2,29.76,NE,41,0.0,-999.0,35,-99.99,,,0.00,0.0,cwc,2013-06-17 14:05:00,
2013-06-17 08:10:00,67.1,42.6,29.76,NE,41,0.0,-999.0,32,-99.99,,,0.00,0.0,cwc,2013-06-17 14:10:00,
2013-06-17 08:15:00,67.3,42.5,29.76,NE,41,0.0,-999.0,31,-99.99,,,0.00,0.0,cwc,2013-06-17 14:15:00,
2013-06-17 08:20:00,68.6,43.4,29.76,NE,41,0.0,-999.0,30,-99.99,,,0.00,0.0,cwc,2013-06-17 14:20:00,
2013-06-17 08:25:00,69.1,43.9,29.76,NE,41,0.0,-999.0,30,-99.99,,,0.00,0.0,cwc,2013-06-17 14:25:00,
2013-06-17 08:30:00,69.1,43.2,29.76,NNE,28,0.0,-999.0,28,-99.99,,,0.00,0.0,cwc,2013-06-17 14:30:00,
2013-06-17 08:35:00,70.4,44.5,29.76,NNE,28,0.0,-999.0,28,-99.99,,,0.00,0.0,cwc,2013-06-17 14:35:00,
2013-06-17 08:40:00,69.9,44.0,29.76,NNE,20,6.0,-999.0,28,-99.99,,,0.00,0.0,cwc,2013-06-17 14:40:00,
2013-06-17 08:45:00,70.4,44.8,29.76,North,11,2.0,-999.0,29,-99.99,,,0.00,0.0,cwc,2013-06-17 14:45:00,
2013-06-17 08:50:00,70.8,44.9,29.74,North,11,6.0,-999.0,28,-99.99,,,0.00,0.0,cwc,2013-06-17 14:50:00,
2013-06-17 08:55:00,71.3,45.4,29.74,North,8,6.0,-999.0,28,-99.99,,,0.00,0.0,cwc,2013-06-17 14:55:00,
2013-06-17 09:00:00,71.5,45.2,29.74,NE,49,4.0,-999.0,27,-99.99,,,0.00,0.0,cwc,2013-06-17 15:00:00,
2013-06-17 09:05:00,72.0,45.7,29.72,NE,49,4.0,-999.0,27,-99.99,,,0.00,0.0,cwc,2013-06-17 15:05:00,
2013-06-17 09:10:00,72.8,46.2,29.72,NE,49,0.0,-999.0,26,-99.99,,,0.00,0.0,cwc,2013-06-17 15:10:00,
2013-06-17 09:15:00,74.4,47.4,29.72,NE,49,0.0,-999.0,25,-99.99,,,0.00,0.0,cwc,2013-06-17 15:15:00,
2013-06-17 09:20:00,75.3,47.9,29.71,NE,49,0.0,-999.0,24,-99.99,,,0.00,0.0,cwc,2013-06-17 15:20:00,
2013-06-17 09:25:00,76.1,48.7,29.71,NE,49,2.0,-999.0,24,-99.99,,,0.00,0.0,cwc,2013-06-17 15:25:00,
2013-06-17 09:30:00,75.8,48.1,29.71,NE,54,1.0,-999.0,23,-99.99,,,0.00,0.0,cwc,2013-06-17 15:30:00,
2013-06-17 09:35:00,76.1,48.7,29.69,NE,54,0.0,-999.0,24,-99.99,,,0.00,0.0,cwc,2013-06-17 15:35:00,
2013-06-17 09:40:00,77.6,49.9,29.69,NNE,25,4.0,-999.0,23,-99.99,,,0.00,0.0,cwc,2013-06-17 15:40:00,
2013-06-17 09:45:00,78.5,50.4,29.69,North,359,4.0,-999.0,22,-99.99,,,0.00,0.0,cwc,2013-06-17 15:45:00,
2013-06-17 09:50:00,78.8,50.7,29.69,NW,306,2.0,-999.0,22,-99.99,,,0.00,0.0,cwc,2013-06-17 15:50:00,
2013-06-17 09:55:00,78.6,50.9,29.69,SW,227,9.0,-999.0,23,-99.99,,,0.00,0.0,cwc,2013-06-17 15:55:00,
2013-06-17 10:00:00,79.2,51.1,29.69,SW,230,0.0,-999.0,22,-99.99,,,0.00,0.0,cwc,2013-06-17 16:00:00,
2013-06-17 10:05:00,79.8,51.7,29.68,WSW,237,8.0,-999.0,22,-99.99,,,0.00,0.0,cwc,2013-06-17 16:05:00,
2013-06-17 10:10:00,79.4,51.0,29.68,WNW,301,2.0,-999.0,21,-99.99,,,0.00,0.0,cwc,2013-06-17 16:10:00,
2013-06-17 10:15:00,79.9,51.5,29.68,West,264,6.0,-999.0,21,-99.99,,,0.00,0.0,cwc,2013-06-17 16:15:00,
2013-06-17 10:20:00,80.3,51.9,29.71,SW,224,8.0,-999.0,21,-99.99,,,0.00,0.0,cwc,2013-06-17 16:20:00,
2013-06-17 10:25:00,80.5,52.1,29.71,West,261,9.0,-999.0,21,-99.99,,,0.00,0.0,cwc,2013-06-17 16:25:00,
2013-06-17 10:30:00,79.6,51.2,29.71,SSE,167,11.0,-999.0,21,-99.99,,,0.00,0.0,cwc,2013-06-17 16:30:00,
2013-06-17 10:35:00,80.7,52.3,29.71,WSW,256,4.0,-999.0,21,-99.99,,,0.00,0.0,cwc,2013-06-17 16:35:00,
2013-06-17 10:40:00,79.9,51.5,29.71,SW,226,4.0,-999.0,21,-99.99,,,0.00,0.0,cwc,2013-06-17 16:40:00,
2013-06-17 10:45:00,79.4,51.3,29.71,SSW,203,6.0,-999.0,22,-99.99,,,0.00,0.0,cwc,2013-06-17 16:45:00,
2013-06-17 10:50:00,80.5,52.1,29.71,SSW,203,8.0,-999.0,21,-99.99,,,0.00,0.0,cwc,2013-06-17 16:50:00,
2013-06-17 10:55:00,81.2,52.8,29.71,SSW,212,11.0,-999.0,21,-99.99,,,0.00,0.0,cwc,2013-06-17 16:55:00,
2013-06-17 11:00:00,79.9,52.2,29.71,SSW,208,10.0,-999.0,23,-99.99,,,0.00,0.0,cwc,2013-06-17 17:00:00,
2013-06-17 11:05:00,80.1,51.7,29.70,SSW,200,10.0,-999.0,21,-99.99,,,0.00,0.0,cwc,2013-06-17 17:05:00,
2013-06-17 11:10:00,79.6,51.5,29.70,SW,224,9.0,-999.0,22,-99.99,,,0.00,0.0,cwc,2013-06-17 17:10:00,
2013-06-17 11:15:00,80.7,52.3,29.70,SSW,205,8.0,-999.0,21,-99.99,,,0.00,0.0,cwc,2013-06-17 17:15:00,
2013-06-17 11:20:00,80.5,51.7,29.72,SSW,213,8.0,-999.0,20,-99.99,,,0.00,0.0,cwc,2013-06-17 17:20:00,
2013-06-17 11:25:00,82.0,53.2,29.72,SW,224,6.0,-999.0,20,-99.99,,,0.00,0.0,cwc,2013-06-17 17:25:00,
2013-06-17 11:30:00,82.6,53.8,29.72,SSW,195,2.0,-999.0,20,-99.99,,,0.00,0.0,cwc,2013-06-17 17:30:00,
2013-06-17 11:40:00,83.8,55.0,29.71,SW,220,10.0,-999.0,20,-99.99,,,0.00,0.0,cwc,2013-06-17 17:40:00,
2013-06-17 11:45:00,83.0,53.5,29.71,SSW,213,14.0,-999.0,18,-99.99,,,0.00,0.0,cwc,2013-06-17 17:45:00,
2013-06-17 11:50:00,82.2,53.0,29.70,SW,220,13.0,-999.0,19,-99.99,,,0.00,0.0,cwc,2013-06-17 17:50:00,
2013-06-17 11:55:00,81.6,52.4,29.70,SW,236,13.0,-999.0,19,-99.99,,,0.00,0.0,cwc,2013-06-17 17:55:00,
2013-06-17 12:00:00,80.9,52.1,29.70,WSW,241,10.0,-999.0,20,-99.99,,,0.00,0.0,cwc,2013-06-17 18:00:00,
2013-06-17 12:05:00,80.9,52.5,29.71,West,280,7.0,-999.0,21,-99.99,,,0.00,0.0,cwc,2013-06-17 18:05:00,
2013-06-17 12:10:00,80.7,52.6,29.71,WSW,240,0.0,-999.0,22,-99.99,,,0.00,0.0,cwc,2013-06-17 18:10:00,
2013-06-17 12:15:00,80.5,52.1,29.71,WSW,240,16.0,-999.0,21,-99.99,,,0.00,0.0,cwc,2013-06-17 18:15:00,
2013-06-17 12:20:00,80.1,51.7,29.72,WSW,248,8.0,-999.0,21,-99.99,,,0.00,0.0,cwc,2013-06-17 18:20:00,
2013-06-17 12:25:00,81.1,51.6,29.72,NW,315,9.0,-999.0,18,-99.99,,,0.00,0.0,cwc,2013-06-17 18:25:00,
2013-06-17 12:30:00,83.0,53.8,29.72,SSW,203,15.0,-999.0,19,-99.99,,,0.00,0.0,cwc,2013-06-17 18:30:00,
2013-06-17 12:35:00,84.9,54.3,29.71,West,277,6.0,-999.0,15,-99.99,,,0.00,0.0,cwc,2013-06-17 18:35:00,
2013-06-17 12:40:00,84.5,54.3,29.71,NW,304,4.0,-999.0,16,-99.99,,,0.00,0.0,cwc,2013-06-17 18:40:00,
2013-06-17 12:45:00,84.5,53.9,29.71,SW,233,11.0,-999.0,15,-99.99,,,0.00,0.0,cwc,2013-06-17 18:45:00,
2013-06-17 12:50:00,83.4,52.4,29.70,SW,220,0.0,-999.0,14,-99.99,,,0.00,0.0,cwc,2013-06-17 18:50:00,
2013-06-17 12:55:00,82.4,51.8,29.70,SW,233,10.0,-999.0,15,-99.99,,,0.00,0.0,cwc,2013-06-17 18:55:00,
2013-06-17 13:00:00,81.8,51.2,29.70,NNW,337,6.0,-999.0,15,-99.99,,,0.00,0.0,cwc,2013-06-17 19:00:00,
2013-06-17 13:05:00,79.6,49.0,29.73,NNW,328,8.0,-999.0,15,-99.99,,,0.00,0.0,cwc,2013-06-17 19:05:00,
2013-06-17 13:10:00,78.6,48.7,29.73,West,268,11.0,-999.0,17,-99.99,,,0.00,0.0,cwc,2013-06-17 19:10:00,
2013-06-17 13:15:00,78.3,48.4,29.73,WSW,250,13.0,-999.0,17,-99.99,,,0.00,0.0,cwc,2013-06-17 19:15:00,
2013-06-17 13:20:00,77.6,47.7,29.77,NNE,14,13.0,-999.0,17,-99.99,,,0.00,0.0,cwc,2013-06-17 19:20:00,
2013-06-17 13:25:00,77.2,48.0,29.77,NE,34,7.0,-999.0,19,-99.99,,,0.00,0.0,cwc,2013-06-17 19:25:00,
2013-06-17 13:30:00,77.2,47.7,29.77,NNW,347,7.0,-999.0,18,-99.99,,,0.00,0.0,cwc,2013-06-17 19:30:00,
2013-06-17 13:35:00,77.4,48.2,29.78,NE,42,16.0,-999.0,19,-99.99,,,0.00,0.0,cwc,2013-06-17 19:35:00,
2013-06-17 13:40:00,77.7,48.2,29.78,North,352,2.0,-999.0,18,-99.99,,,0.00,0.0,cwc,2013-06-17 19:40:00,
2013-06-17 13:45:00,77.9,49.1,29.78,NNE,18,8.0,-999.0,20,-99.99,,,0.00,0.0,cwc,2013-06-17 19:45:00,
2013-06-17 13:50:00,80.3,51.5,29.76,NNW,336,0.0,-999.0,20,-99.99,,,0.00,0.0,cwc,2013-06-17 19:50:00,
2013-06-17 13:55:00,80.9,51.4,29.76,NNW,337,9.0,-999.0,18,-99.99,,,0.00,0.0,cwc,2013-06-17 19:55:00,
2013-06-17 14:00:00,83.0,53.1,29.76,North,359,0.0,-999.0,17,-99.99,,,0.00,0.0,cwc,2013-06-17 20:00:00,
2013-06-17 14:05:00,84.7,54.8,29.72,NNW,333,0.0,-999.0,17,-99.99,,,0.00,0.0,cwc,2013-06-17 20:05:00,
2013-06-17 14:10:00,84.1,54.2,29.72,NE,49,2.0,-999.0,17,-99.99,,,0.00,0.0,cwc,2013-06-17 20:10:00,
2013-06-17 14:15:00,84.9,55.0,29.72,NW,322,8.0,-999.0,17,-99.99,,,0.00,0.0,cwc,2013-06-17 20:15:00,
2013-06-17 14:20:00,85.9,56.0,29.72,NNW,332,0.0,-999.0,17,-99.99,,,0.00,0.0,cwc,2013-06-17 20:20:00,
2013-06-17 14:25:00,87.4,56.8,29.72,WSW,243,0.0,-999.0,15,-99.99,,,0.00,0.0,cwc,2013-06-17 20:25:00,
2013-06-17 14:30:00,88.0,57.4,29.72,East,82,0.0,-999.0,15,-99.99,,,0.00,0.0,cwc,2013-06-17 20:30:00,
2013-06-17 14:35:00,86.3,56.1,29.69,ENE,59,2.0,-999.0,16,-99.99,,,0.00,0.0,cwc,2013-06-17 20:35:00,
2013-06-17 14:40:00,87.4,56.8,29.69,NE,56,0.0,-999.0,15,-99.99,,,0.00,0.0,cwc,2013-06-17 20:40:00,
2013-06-17 14:45:00,87.6,57.0,29.69,East,99,4.0,-999.0,15,-99.99,,,0.00,0.0,cwc,2013-06-17 20:45:00,
2013-06-17 14:50:00,86.1,55.1,29.68,East,96,1.0,-999.0,14,-99.99,,,0.00,0.0,cwc,2013-06-17 20:50:00,
2013-06-17 14:55:00,86.5,55.9,29.68,SSE,158,0.0,-999.0,15,-99.99,,,0.00,0.0,cwc,2013-06-17 20:55:00,
2013-06-17 15:00:00,85.9,55.3,29.68,ESE,107,0.0,-999.0,15,-99.99,,,0.00,0.0,cwc,2013-06-17 21:00:00,
2013-06-17 15:05:00,85.5,55.3,29.68,East,99,2.0,-999.0,16,-99.99,,,0.00,0.0,cwc,2013-06-17 21:05:00,
2013-06-17 15:10:00,84.7,54.5,29.68,East,85,6.0,-999.0,16,-99.99,,,0.00,0.0,cwc,2013-06-17 21:10:00,
2013-06-17 15:15:00,84.7,54.5,29.68,East,85,0.0,-999.0,16,-99.99,,,0.00,0.0,cwc,2013-06-17 21:15:00,
2013-06-17 15:20:00,84.7,54.5,29.67,East,85,0.0,-999.0,16,-99.99,,,0.00,0.0,cwc,2013-06-17 21:20:00,
2013-06-17 15:25:00,84.3,54.1,29.67,WSW,243,4.0,-999.0,16,-99.99,,,0.00,0.0,cwc,2013-06-17 21:25:00,
2013-06-17 15:30:00,84.5,54.3,29.67,NNW,329,0.0,-999.0,16,-99.99,,,0.00,0.0,cwc,2013-06-17 21:30:00,
2013-06-17 15:35:00,87.0,56.4,29.67,WSW,251,8.0,-999.0,15,-99.99,,,0.00,0.0,cwc,2013-06-17 21:35:00,
2013-06-17 15:40:00,87.8,56.8,29.67,South,176,0.0,-999.0,14,-99.99,,,0.00,0.0,cwc,2013-06-17 21:40:00,
2013-06-17 15:45:00,89.3,58.3,29.67,South,178,0.0,-999.0,14,-99.99,,,0.00,0.0,cwc,2013-06-17 21:45:00,
2013-06-17 15:50:00,90.5,59.2,29.63,South,174,7.0,-999.0,13,-99.99,,,0.00,0.0,cwc,2013-06-17 21:50:00,
2013-06-17 15:55:00,88.6,57.6,29.63,WSW,237,10.0,-999.0,14,-99.99,,,0.00,0.0,cwc,2013-06-17 21:55:00,
2013-06-17 16:00:00,89.7,58.4,29.63,SW,216,7.0,-999.0,13,-99.99,,,0.00,0.0,cwc,2013-06-17 22:00:00,
2013-06-17 16:05:00,90.1,58.8,29.63,SW,220,0.0,-999.0,13,-99.99,,,0.00,0.0,cwc,2013-06-17 22:05:00,
2013-06-17 16:10:00,89.5,58.2,29.63,NW,312,7.0,-999.0,13,-99.99,,,0.00,0.0,cwc,2013-06-17 22:10:00,
2013-06-17 16:15:00,90.3,59.0,29.63,WNW,296,1.0,-999.0,13,-99.99,,,0.00,0.0,cwc,2013-06-17 22:15:00,
2013-06-17 16:20:00,90.5,59.5,29.63,SW,229,0.0,-999.0,14,-99.99,,,0.00,0.0,cwc,2013-06-17 22:20:00,
2013-06-17 16:25:00,90.7,59.7,29.63,SSW,195,0.0,-999.0,14,-99.99,,,0.00,0.0,cwc,2013-06-17 22:25:00,
2013-06-17 16:30:00,91.4,60.4,29.63,WNW,301,2.0,-999.0,14,-99.99,,,0.00,0.0,cwc,2013-06-17 22:30:00,
2013-06-17 16:35:00,91.0,60.0,29.62,SSW,203,4.0,-999.0,14,-99.99,,,0.00,0.0,cwc,2013-06-17 22:35:00,
2013-06-17 16:40:00,90.1,59.1,29.62,SW,233,1.0,-999.0,14,-99.99,,,0.00,0.0,cwc,2013-06-17 22:40:00,
2013-06-17 16:45:00,89.9,58.9,29.62,West,281,0.0,-999.0,14,-99.99,,,0.00,0.0,cwc,2013-06-17 22:45:00,
2013-06-17 16:50:00,89.9,58.9,29.62,SW,217,0.0,-999.0,14,-99.99,,,0.00,0.0,cwc,2013-06-17 22:50:00,
2013-06-17 16:55:00,90.1,59.1,29.62,SSW,200,4.0,-999.0,14,-99.99,,,0.00,0.0,cwc,2013-06-17 22:55:00,
2013-06-17 17:00:00,89.3,58.7,29.62,South,185,6.0,-999.0,15,-99.99,,,0.00,0.0,cwc,2013-06-17 23:00:00,
2013-06-17 17:05:00,88.6,57.3,29.60,SW,233,0.0,-999.0,13,-99.99,,,0.00,0.0,cwc,2013-06-17 23:05:00,
2013-06-17 17:10:00,88.6,57.6,29.60,SW,234,15.0,-999.0,14,-99.99,,,0.00,0.0,cwc,2013-06-17 23:10:00,
2013-06-17 17:15:00,86.7,55.7,29.60,SW,229,15.0,-999.0,14,-99.99,,,0.00,0.0,cwc,2013-06-17 23:15:00,
2013-06-17 17:20:00,85.3,54.3,29.66,SW,236,16.0,-999.0,14,-99.99,,,0.00,0.0,cwc,2013-06-17 23:20:00,
2013-06-17 17:25:00,84.9,54.3,29.66,SSW,193,11.0,-999.0,15,-99.99,,,0.00,0.0,cwc,2013-06-17 23:25:00,
2013-06-17 17:30:00,83.8,53.2,29.66,SSE,165,17.0,-999.0,15,-99.99,,,0.00,0.0,cwc,2013-06-17 23:30:00,
2013-06-17 17:35:00,83.8,53.6,29.68,SSW,199,15.0,-999.0,16,-99.99,,,0.00,0.0,cwc,2013-06-17 23:35:00,
2013-06-17 17:40:00,83.2,53.0,29.68,SSE,164,11.0,-999.0,16,-99.99,,,0.00,0.0,cwc,2013-06-17 23:40:00,
2013-06-17 17:45:00,84.0,53.4,29.68,South,174,10.0,-999.0,15,-99.99,,,0.00,0.0,cwc,2013-06-17 23:45:00,
2013-06-17 17:50:00,84.7,54.5,29.67,SSW,202,7.0,-999.0,16,-99.99,,,0.00,0.0,cwc,2013-06-17 23:50:00,
2013-06-17 17:55:00,84.9,54.3,29.67,South,172,16.0,-999.0,15,-99.99,,,0.00,0.0,cwc,2013-06-17 23:55:00,
2013-06-17 18:00:00,85.1,54.5,29.67,South,184,17.0,-999.0,15,-99.99,,,0.00,0.0,cwc,2013-06-18 00:00:00,
2013-06-17 18:05:00,84.3,53.7,29.66,SSW,213,9.0,-999.0,15,-99.99,,,0.00,0.0,cwc,2013-06-18 00:05:00,
2013-06-17 18:10:00,83.4,53.2,29.66,South,172,8.0,-999.0,16,-99.99,,,0.00,0.0,cwc,2013-06-18 00:10:00,
2013-06-17 18:15:00,82.6,52.4,29.66,ESE,110,15.0,-999.0,16,-99.99,,,0.00,0.0,cwc,2013-06-18 00:15:00,
2013-06-17 18:20:00,82.2,52.3,29.65,ESE,114,11.0,-999.0,17,-99.99,,,0.00,0.0,cwc,2013-06-18 00:20:00,
2013-06-17 18:25:00,82.4,52.2,29.65,SSE,150,0.0,-999.0,16,-99.99,,,0.00,0.0,cwc,2013-06-18 00:25:00,
2013-06-17 18:30:00,83.2,52.6,29.65,SE,137,10.0,-999.0,15,-99.99,,,0.00,0.0,cwc,2013-06-18 00:30:00,
2013-06-17 18:35:00,84.7,54.1,29.65,SSE,148,6.0,-999.0,15,-99.99,,,0.00,0.0,cwc,2013-06-18 00:35:00,
2013-06-17 18:40:00,84.5,53.5,29.65,ESE,112,1.0,-999.0,14,-99.99,,,0.00,0.0,cwc,2013-06-18 00:40:00,
2013-06-17 18:45:00,85.3,54.3,29.65,SW,236,4.0,-999.0,14,-99.99,,,0.00,0.0,cwc,2013-06-18 00:45:00,
2013-06-17 18:50:00,85.9,54.9,29.63,East,82,0.0,-999.0,14,-99.99,,,0.00,0.0,cwc,2013-06-18 00:50:00,
2013-06-17 18:55:00,86.1,55.1,29.63,SW,226,0.0,-999.0,14,-99.99,,,0.00,0.0,cwc,2013-06-18 00:55:00,
2013-06-17 19:00:00,85.7,55.1,29.63,ESE,103,0.0,-999.0,15,-99.99,,,0.00,0.0,cwc,2013-06-18 01:00:00,
2013-06-17 19:05:00,85.3,54.7,29.62,SE,126,8.0,-999.0,15,-99.99,,,0.00,0.0,cwc,2013-06-18 01:05:00,
2013-06-17 19:10:00,85.3,54.3,29.62,SE,124,6.0,-999.0,14,-99.99,,,0.00,0.0,cwc,2013-06-18 01:10:00,
2013-06-17 19:15:00,85.3,54.7,29.62,East,89,0.0,-999.0,15,-99.99,,,0.00,0.0,cwc,2013-06-18 01:15:00,
2013-06-17 19:20:00,84.5,54.3,29.55,East,89,2.0,-999.0,16,-99.99,,,0.00,0.0,cwc,2013-06-18 01:20:00,
2013-06-17 19:25:00,84.3,54.1,29.55,East,89,0.0,-999.0,16,-99.99,,,0.00,0.0,cwc,2013-06-18 01:25:00,
2013-06-17 19:30:00,84.7,54.5,29.55,East,89,0.0,-999.0,16,-99.99,,,0.00,0.0,cwc,2013-06-18 01:30:00,
2013-06-17 19:35:00,84.3,54.1,29.55,ESE,112,1.0,-999.0,16,-99.99,,,0.00,0.0,cwc,2013-06-18 01:35:00,
2013-06-17 19:40:00,84.1,54.2,29.55,South,186,0.0,-999.0,17,-99.99,,,0.00,0.0,cwc,2013-06-18 01:40:00,
2013-06-17 19:45:00,84.0,54.1,29.55,South,186,0.0,-999.0,17,-99.99,,,0.00,0.0,cwc,2013-06-18 01:45:00,
2013-06-17 19:50:00,83.4,54.2,29.56,South,186,0.0,-999.0,19,-99.99,,,0.00,0.0,cwc,2013-06-18 01:50:00,
2013-06-17 19:55:00,82.8,53.6,29.56,South,186,0.0,-999.0,19,-99.99,,,0.00,0.0,cwc,2013-06-18 01:55:00,
2013-06-17 20:00:00,82.8,54.0,29.56,South,186,0.0,-999.0,20,-99.99,,,0.00,0.0,cwc,2013-06-18 02:00:00,
2013-06-17 20:05:00,82.4,52.9,29.57,South,186,0.0,-999.0,18,-99.99,,,0.00,0.0,cwc,2013-06-18 02:05:00,
2013-06-17 20:10:00,81.6,53.2,29.57,South,186,0.0,-999.0,21,-99.99,,,0.00,0.0,cwc,2013-06-18 02:10:00,
2013-06-17 20:15:00,79.9,51.5,29.57,South,186,0.0,-999.0,21,-99.99,,,0.00,0.0,cwc,2013-06-18 02:15:00,
2013-06-17 20:20:00,78.6,50.2,29.54,South,186,0.0,-999.0,21,-99.99,,,0.00,0.0,cwc,2013-06-18 02:20:00,
2013-06-17 20:25:00,77.9,49.8,29.54,South,186,0.0,-999.0,22,-99.99,,,0.00,0.0,cwc,2013-06-18 02:25:00,
2013-06-17 20:30:00,77.0,48.9,29.54,South,186,0.0,-999.0,22,-99.99,,,0.00,0.0,cwc,2013-06-18 02:30:00,
2013-06-17 20:35:00,75.8,49.2,29.57,South,186,0.0,-999.0,26,-99.99,,,0.00,0.0,cwc,2013-06-18 02:35:00,
2013-06-17 20:40:00,74.9,48.6,29.57,South,186,0.0,-999.0,27,-99.99,,,0.00,0.0,cwc,2013-06-18 02:40:00,
2013-06-17 20:45:00,74.2,48.3,29.57,South,186,0.0,-999.0,28,-99.99,,,0.00,0.0,cwc,2013-06-18 02:45:00,
2013-06-17 20:50:00,74.2,48.3,29.58,South,186,0.0,-999.0,28,-99.99,,,0.00,0.0,cwc,2013-06-18 02:50:00,
2013-06-17 20:55:00,73.5,47.2,29.58,South,186,0.0,-999.0,27,-99.99,,,0.00,0.0,cwc,2013-06-18 02:55:00,
2013-06-17 21:00:00,73.0,46.4,29.58,South,186,0.0,-999.0,26,-99.99,,,0.00,0.0,cwc,2013-06-18 03:00:00,
2013-06-17 21:05:00,72.5,45.9,29.60,South,181,0.0,-999.0,26,-99.99,,,0.00,0.0,cwc,2013-06-18 03:05:00,
2013-06-17 21:10:00,70.8,44.9,29.60,South,181,0.0,-999.0,28,-99.99,,,0.00,0.0,cwc,2013-06-18 03:10:00,
2013-06-17 21:15:00,70.3,46.9,29.60,East,92,2.0,-999.0,35,-99.99,,,0.00,0.0,cwc,2013-06-18 03:15:00,
2013-06-17 21:20:00,71.3,44.7,29.58,NE,47,10.0,-999.0,26,-99.99,,,0.00,0.0,cwc,2013-06-18 03:20:00,
2013-06-17 21:25:00,73.2,45.8,29.58,ESE,114,6.0,-999.0,24,-99.99,,,0.00,0.0,cwc,2013-06-18 03:25:00,
2013-06-17 21:30:00,73.7,46.7,29.58,NNE,20,2.0,-999.0,25,-99.99,,,0.00,0.0,cwc,2013-06-18 03:30:00,
2013-06-17 21:35:00,73.9,46.5,29.58,ENE,73,14.0,-999.0,24,-99.99,,,0.00,0.0,cwc,2013-06-18 03:35:00,
2013-06-17 21:40:00,73.9,46.9,29.58,North,4,8.0,-999.0,25,-99.99,,,0.00,0.0,cwc,2013-06-18 03:40:00,
2013-06-17 21:45:00,73.7,46.7,29.58,East,79,1.0,-999.0,25,-99.99,,,0.00,0.0,cwc,2013-06-18 03:45:00,
2013-06-17 21:50:00,73.5,46.5,29.58,NE,44,0.0,-999.0,25,-99.99,,,0.00,0.0,cwc,2013-06-18 03:50:00,
2013-06-17 21:55:00,73.5,46.1,29.58,ENE,78,0.0,-999.0,24,-99.99,,,0.00,0.0,cwc,2013-06-18 03:55:00,
2013-06-17 22:00:00,73.5,46.5,29.58,ENE,76,8.0,-999.0,25,-99.99,,,0.00,0.0,cwc,2013-06-18 04:00:00,
2013-06-17 22:05:00,73.5,46.1,29.59,ENE,78,1.0,-999.0,24,-99.99,,,0.00,0.0,cwc,2013-06-18 04:05:00,
2013-06-17 22:10:00,73.7,46.7,29.59,ENE,73,4.0,-999.0,25,-99.99,,,0.00,0.0,cwc,2013-06-18 04:10:00,
2013-06-17 22:15:00,73.9,46.9,29.59,NE,42,2.0,-999.0,25,-99.99,,,0.00,0.0,cwc,2013-06-18 04:15:00,
2013-06-17 22:20:00,73.7,46.7,29.60,ESE,103,0.0,-999.0,25,-99.99,,,0.00,0.0,cwc,2013-06-18 04:20:00,
2013-06-17 22:25:00,73.3,46.3,29.60,SE,144,0.0,-999.0,25,-99.99,,,0.00,0.0,cwc,2013-06-18 04:25:00,
2013-06-17 22:30:00,73.3,46.3,29.60,SE,144,0.0,-999.0,25,-99.99,,,0.00,0.0,cwc,2013-06-18 04:30:00,
2013-06-17 22:35:00,73.2,46.2,29.62,SE,144,0.0,-999.0,25,-99.99,,,0.00,0.0,cwc,2013-06-18 04:35:00,
2013-06-17 22:40:00,72.8,47.2,29.62,ESE,119,6.0,-999.0,29,-99.99,,,0.00,0.0,cwc,2013-06-18 04:40:00,
2013-06-17 22:45:00,72.7,49.3,29.62,NE,48,9.0,-999.0,35,-99.99,,,0.00,0.0,cwc,2013-06-18 04:45:00,
2013-06-17 22:50:00,72.7,49.3,29.62,ENE,58,1.0,-999.0,35,-99.99,,,0.00,0.0,cwc,2013-06-18 04:50:00,
2013-06-17 22:55:00,72.5,49.1,29.62,East,96,4.0,-999.0,35,-99.99,,,0.00,0.0,cwc,2013-06-18 04:55:00,
2013-06-17 23:00:00,72.3,49.3,29.62,ENE,62,4.0,-999.0,36,-99.99,,,0.00,0.0,cwc,2013-06-18 05:00:00,
2013-06-17 23:05:00,72.0,49.3,29.61,ENE,66,0.0,-999.0,37,-99.99,,,0.00,0.0,cwc,2013-06-18 05:05:00,
2013-06-17 23:10:00,71.8,48.8,29.61,East,92,0.0,-999.0,36,-99.99,,,0.00,0.0,cwc,2013-06-18 05:10:00,
2013-06-17 23:15:00,71.6,48.6,29.61,SE,124,0.0,-999.0,36,-99.99,,,0.00,0.0,cwc,2013-06-18 05:15:00,
2013-06-17 23:20:00,71.5,49.2,29.62,SE,124,2.0,-999.0,38,-99.99,,,0.00,0.0,cwc,2013-06-18 05:20:00,
2013-06-17 23:25:00,71.3,48.6,29.62,ESE,109,4.0,-999.0,37,-99.99,,,0.00,0.0,cwc,2013-06-18 05:25:00,
2013-06-17 23:30:00,70.9,48.2,29.62,ESE,102,6.0,-999.0,37,-99.99,,,0.00,0.0,cwc,2013-06-18 05:30:00,
2013-06-17 23:35:00,70.8,48.1,29.62,ESE,103,6.0,-999.0,37,-99.99,,,0.00,0.0,cwc,2013-06-18 05:35:00,
2013-06-17 23:40:00,70.8,48.1,29.62,SE,137,8.0,-999.0,37,-99.99,,,0.00,0.0,cwc,2013-06-18 05:40:00,
2013-06-17 23:45:00,70.6,48.3,29.62,East,93,6.0,-999.0,38,-99.99,,,0.00,0.0,cwc,2013-06-18 05:45:00,
2013-06-17 23:50:00,70.4,48.1,29.61,East,97,11.0,-999.0,38,-99.99,,,0.00,0.0,cwc,2013-06-18 05:50:00,
2013-06-17 23:55:00,70.1,48.1,29.61,ESE,117,7.0,-999.0,39,-99.99,,,0.00,0.0,cwc,2013-06-18 05:55:00,